Weather History for KSUE - February, 2013

Change the Weather History Date:

Sunday, February 17, 2013

  Actual Average Record
Temperature  
Mean Temperature 10 °F -  
Max Temperature 23 °F 29 °F 49 °F (1981)
Min Temperature -2 °F 12 °F -23 °F (1979)
Degree Days  
Heating Degree Days 54    
Moisture  
Dew Point 0 °F    
Average Humidity 64    
Maximum Humidity 85    
Minimum Humidity 45    
Precipitation  
Precipitation 0.00 in - - ()
Sea Level Pressure  
Sea Level Pressure 30.10 in    
Wind  
Wind Speed 4 mph (SW)    
Max Wind Speed 10 mph    
Max Gust Speed -    
Visibility 10 miles    
Events      
Averages and records for this station are not official NWS values.
T = Trace of Precipitation, MM = Missing Value Source: NWS Daily Summary

Daily Weather History Graph

Daily Weather History Graph

Search for Another Location

Airport or City:

Trip Planner

Search our weather history database for the weather conditions in past years. The results will help you decide how hot, cold, wet, or windy it might be!

Date:

Astronomy

Feb. 17, 2013 Rise Set
Actual Time 6:46 AM CST 5:21 PM CST
Civil Twilight 6:16 AM CST 5:51 PM CST
Nautical Twilight 5:42 AM CST 6:25 PM CST
Astronomical Twilight 5:08 AM CST 6:59 PM CST
Moon 10:19 AM CST (2/17) 12:36 AM CST (2/17)
Length of Visible Light 11h 34m
Length of Day
10h 34m
Waxing Crescent, 49% of the Moon is Illuminated
Feb 17
Waxing Crescent
Feb 17
First Quarter
Feb 25
Full
Mar 4
Last Quarter
Mar 11
New

Hourly Weather History & Observations

Time (CST) Temp. Windchill Dew Point Humidity Pressure Visibility Wind Dir Wind Speed Gust Speed Precip Events Conditions
12:15 AM 6.8 °F -2.0 °F -4.0 °F 61% 30.13 in 10.0 mi NNW 4.6 mph - N/A   Clear
12:35 AM 5.0 °F -4.1 °F -4.0 °F 66% 30.13 in 10.0 mi NNW 4.6 mph - N/A   Clear
12:55 AM 5.0 °F -2.1 °F -4.0 °F 66% 30.14 in 10.0 mi NNW 3.5 mph - N/A   Clear
1:15 AM 3.2 °F - -7.6 °F 61% 30.13 in 10.0 mi Calm Calm - N/A   Clear
1:35 AM 1.4 °F -6.2 °F -5.8 °F 72% 30.14 in 10.0 mi WNW 3.5 mph - N/A   Clear
1:55 AM 1.4 °F -8.3 °F -5.8 °F 72% 30.14 in 10.0 mi WNW 4.6 mph - N/A   Clear
2:15 AM 1.4 °F -11.3 °F -5.8 °F 72% 30.14 in 10.0 mi WNW 6.9 mph - N/A   Clear
2:35 AM 1.4 °F -9.9 °F -4.0 °F 78% 30.14 in 10.0 mi WNW 5.8 mph - N/A   Clear
2:55 AM 1.4 °F -6.2 °F -5.8 °F 72% 30.14 in 10.0 mi WNW 3.5 mph - N/A   Clear
3:15 AM 1.4 °F -9.9 °F -5.8 °F 72% 30.14 in 10.0 mi WNW 5.8 mph - N/A   Clear
3:35 AM 1.4 °F -9.9 °F -5.8 °F 72% 30.14 in 10.0 mi WNW 5.8 mph - N/A   Clear
3:55 AM -0.4 °F -8.3 °F -5.8 °F 78% 30.14 in 10.0 mi West 3.5 mph - N/A   Clear
4:15 AM -0.4 °F -10.4 °F -7.6 °F 72% 30.14 in 10.0 mi WNW 4.6 mph - N/A   Clear
4:35 AM -2.2 °F - -7.6 °F 78% 30.15 in 10.0 mi Calm Calm - N/A   Clear
4:55 AM -0.4 °F -8.3 °F -5.8 °F 78% 30.14 in 10.0 mi WNW 3.5 mph - N/A   Clear
5:15 AM -0.4 °F -10.4 °F -7.6 °F 72% 30.14 in 10.0 mi WNW 4.6 mph - N/A   Clear
5:35 AM -2.2 °F -10.4 °F -7.6 °F 78% 30.14 in 10.0 mi WNW 3.5 mph - N/A   Clear
5:55 AM -2.2 °F -12.5 °F -7.6 °F 78% 30.15 in 10.0 mi WNW 4.6 mph - N/A   Clear
6:15 AM -2.2 °F - -7.6 °F 78% 30.15 in 10.0 mi Calm Calm - N/A   Clear
6:35 AM -2.2 °F -10.4 °F -7.6 °F 78% 30.15 in 10.0 mi West 3.5 mph - N/A   Clear
6:55 AM -2.2 °F -10.4 °F -5.8 °F 85% 30.15 in 10.0 mi WNW 3.5 mph - N/A   Clear
7:15 AM -2.2 °F - -5.8 °F 85% 30.15 in 10.0 mi Calm Calm - N/A   Clear
7:35 AM -0.4 °F -8.3 °F -5.8 °F 78% 30.16 in 10.0 mi WNW 3.5 mph - N/A   Clear
7:55 AM -0.4 °F - -4.0 °F 85% 30.16 in 10.0 mi Calm Calm - N/A   Clear
8:15 AM 1.4 °F - -4.0 °F 78% 30.16 in 10.0 mi Calm Calm - N/A   Clear
8:35 AM 1.4 °F - -2.2 °F 85% 30.16 in 10.0 mi Calm Calm - N/A   Clear
8:55 AM 3.2 °F -7.8 °F -2.2 °F 78% 30.17 in 10.0 mi NW 5.8 mph - N/A   Clear
9:15 AM 5.0 °F -4.1 °F -0.4 °F 78% 30.17 in 10.0 mi NNW 4.6 mph - N/A   Clear
9:35 AM 6.8 °F -0.1 °F -0.4 °F 72% 30.18 in 10.0 mi NNW 3.5 mph - N/A   Clear
9:55 AM 6.8 °F - -0.4 °F 72% 30.17 in 10.0 mi Calm Calm - N/A   Clear
10:15 AM 8.6 °F - -0.4 °F 67% 30.17 in 10.0 mi Calm Calm - N/A   Clear
10:35 AM 8.6 °F - -0.4 °F 67% 30.17 in 10.0 mi Calm Calm - N/A   Clear
10:55 AM 10.4 °F - 1.4 °F 67% 30.17 in 10.0 mi Calm Calm - N/A   Clear
11:15 AM 15.8 °F - 3.2 °F 58% 30.17 in 10.0 mi Calm Calm - N/A   Clear
11:35 AM 14.0 °F - -2.2 °F 49% 30.17 in 10.0 mi Calm Calm - N/A   Clear
11:55 AM 15.8 °F 7.2 °F 1.4 °F 53% 30.16 in 10.0 mi West 5.8 mph - N/A   Clear
12:15 PM 15.8 °F 8.6 °F -0.4 °F 49% 30.15 in 10.0 mi West 4.6 mph - N/A   Clear
12:35 PM 15.8 °F 10.2 °F -0.4 °F 49% 30.14 in 10.0 mi West 3.5 mph - N/A   Clear
12:55 PM 15.8 °F 6.1 °F 1.4 °F 53% 30.13 in 10.0 mi SSW 6.9 mph - N/A   Clear
1:15 PM 15.8 °F - -0.4 °F 49% 30.13 in 10.0 mi Calm Calm - N/A   Clear
1:35 PM 17.6 °F 8.2 °F -0.4 °F 45% 30.12 in 10.0 mi SSW 6.9 mph - N/A   Clear
1:55 PM 17.6 °F 7.3 °F -0.4 °F 45% 30.12 in 10.0 mi SW 8.1 mph - N/A   Clear
2:15 PM 17.6 °F 10.7 °F -0.4 °F 45% 30.12 in 10.0 mi SW 4.6 mph - N/A   Clear
2:35 PM 17.6 °F 9.3 °F 1.4 °F 49% 30.11 in 10.0 mi South 5.8 mph - N/A   Clear
2:55 PM 17.6 °F 9.3 °F -0.4 °F 45% 30.10 in 10.0 mi South 5.8 mph - N/A   Clear
3:15 PM 17.6 °F 8.2 °F -0.4 °F 45% 30.10 in 10.0 mi SSW 6.9 mph - N/A   Clear
3:35 PM 17.6 °F 7.3 °F 1.4 °F 49% 30.09 in 10.0 mi South 8.1 mph - N/A   Clear
3:55 PM 17.6 °F 7.3 °F 1.4 °F 49% 30.09 in 10.0 mi South 8.1 mph - N/A   Clear
4:15 PM 17.6 °F 6.4 °F 1.4 °F 49% 30.08 in 10.0 mi South 9.2 mph - N/A   Clear
4:35 PM 17.6 °F 8.2 °F 1.4 °F 49% 30.07 in 10.0 mi South 6.9 mph - N/A   Clear
4:55 PM 15.8 °F 7.2 °F 1.4 °F 53% 30.06 in 10.0 mi South 5.8 mph - N/A   Clear
5:15 PM 15.8 °F 8.6 °F 1.4 °F 53% 30.06 in 10.0 mi South 4.6 mph - N/A   Clear
5:35 PM 15.8 °F 8.6 °F 1.4 °F 53% 30.05 in 10.0 mi South 4.6 mph - N/A   Clear
5:55 PM 15.8 °F 10.2 °F 1.4 °F 53% 30.06 in 10.0 mi South 3.5 mph - N/A   Clear
6:15 PM 15.8 °F 10.2 °F 1.4 °F 53% 30.06 in 10.0 mi SSW 3.5 mph - N/A   Clear
6:35 PM 15.8 °F 10.2 °F 1.4 °F 53% 30.05 in 10.0 mi SSW 3.5 mph - N/A   Scattered Clouds
6:55 PM 14.0 °F 8.2 °F 1.4 °F 57% 30.05 in 10.0 mi SSW 3.5 mph - N/A   Partly Cloudy
7:15 PM 15.8 °F 10.2 °F 1.4 °F 53% 30.04 in 10.0 mi SSW 3.5 mph - N/A   Partly Cloudy
7:35 PM 15.8 °F 10.2 °F 1.4 °F 53% 30.04 in 10.0 mi South 3.5 mph - N/A   Clear
7:55 PM 15.8 °F 8.6 °F 1.4 °F 53% 30.03 in 10.0 mi South 4.6 mph - N/A   Partly Cloudy
8:15 PM 15.8 °F 8.6 °F 3.2 °F 58% 30.03 in 10.0 mi South 4.6 mph - N/A   Clear
8:35 PM 15.8 °F 7.2 °F 5.0 °F 62% 30.02 in 10.0 mi South 5.8 mph - N/A   Clear
8:55 PM 17.6 °F 9.3 °F 8.6 °F 68% 30.02 in 10.0 mi South 5.8 mph - N/A   Clear
9:15 PM 17.6 °F 9.3 °F 8.6 °F 68% 30.01 in 10.0 mi South 5.8 mph - N/A   Clear
9:35 PM 19.4 °F 10.4 °F 8.6 °F 63% 30.01 in 10.0 mi South 6.9 mph - N/A   Clear
9:55 PM 19.4 °F 9.5 °F 8.6 °F 63% 30.00 in 10.0 mi SSW 8.1 mph - N/A   Scattered Clouds
10:15 PM 19.4 °F 9.5 °F 10.4 °F 68% 29.99 in 10.0 mi South 8.1 mph - N/A   Mostly Cloudy
10:35 PM 21.2 °F 10.9 °F 12.2 °F 68% 29.99 in 10.0 mi South 9.2 mph - N/A   Partly Cloudy
10:55 PM 21.2 °F 10.1 °F 12.2 °F 68% 29.98 in 10.0 mi South 10.4 mph - N/A   Scattered Clouds
11:15 PM 21.2 °F 11.7 °F 12.2 °F 68% 29.98 in 10.0 mi South 8.1 mph - N/A   Partly Cloudy
11:35 PM 23.0 °F 13.1 °F 15.8 °F 74% 29.97 in 10.0 mi South 9.2 mph - N/A   Mostly Cloudy
11:55 PM 23.0 °F 14.7 °F 15.8 °F 74% 29.97 in 10.0 mi South 6.9 mph - N/A   Overcast